Zurück zum Katalog

ATLAS 5 CENTAUR DEB

AktivHEO
NORAD 53520·DEBRIS·🇺🇸 United States

Gestartet Oct 17, 2018 von Cape Canaveral Space Force Station

Loading…

Nächste Überflüge (nächste 24 Stunden)

TLE

AlterndSource: Space-Track

Epoche: Sep 2, 2026, 09:45 UTC

1 53520U 18079HB  26245.40658742 -.00000154  00000-0  00000-0 0  9996
2 53520  13.6634  29.3229 4673326 321.4537  12.9519  1.80103885 31929

Verfolge ATLAS 5 CENTAUR DEB in Echtzeit mit AllMySat

Download on the App Store